Regional Weather Roundup
Issued by NWS Albany, NY

Home | Current Version | Previous Version | Text Only | Print | Product List | Glossary On
Versions: 1 2 3 4 5 6 7 8 9 10 11 12 13 14 15 16 17 18 19 20 21 22 23 24 25 26 27 28 29 30 31 32 33 34 35 36 37 38 39 40 41 42 43 44 45 46 47 48 49 50
000
ASUS41 KALY 300110
RWRALY

NEW YORK STATE HOURLY WEATHER ROUNDUP
NATIONAL WEATHER SERVICE ALBANY NY
800 PM EST THU JAN 29 2015

NOTE: "FAIR" INDICATES FEW OR NO CLOUDS BELOW 12,000 FEET WITH NO
SIGNIFICANT WEATHER AND/OR NO OBSTRUCTIONS TO VISIBILITY.

NYZ032-033-038>043-046>054-057>066-NYZ062>081-300200-
EAST


CITY           SKY/WX    TMP DP  RH WIND       PRES   REMARKS
ALBANY         CLOUDY    29   8  41 S9        30.01F WCI  20
GLENS FALLS    CLOUDY    24   8  50 CALM      29.99F
POUGHKEEPSIE   CLOUDY    31  17  56 SE6       30.06F WCI  25
NEWBURGH       CLOUDY    28  21  74 S12       30.06F WCI  18
MONTGOMERY     CLOUDY    29  17  61 S5        30.04F WCI  24
WHITE PLAINS   CLOUDY    28  22  78 SE7       30.06F WCI  21
ISLIP          CLOUDY    32  26  78 SE3       30.09F
NEW YORK CITY  CLOUDY    35  27  72 S8        30.09F WCI  29
CENTRAL PARK   CLOUDY    35  25  66 S12G18    30.10F WCI  27
$$

NYZ005>009-017-018-044>046-055-056-300200-
CENTRAL


CITY           SKY/WX    TMP DP  RH WIND       PRES   REMARKS
FULTON         LGT SNOW  29  26  89 S10       29.82S VSB 1   WCI  20
SYRACUSE       LGT SNOW  26  26 100 S9        29.84S VSB 1   WCI  17
ROME           FLURRIES  31  21  66 SE7       29.90F WCI  24
ELMIRA         CLOUDY    27  20  75 S13       29.85F WCI  16
BINGHAMTON     FLURRIES  23  19  85 S10G18    29.84S WCI  12
MONTICELLO     CLOUDY    23   9  54 SE8       29.99S WCI  14
$$

NYZ026>034-041>043-300200-
NORTH


CITY           SKY/WX    TMP DP  RH WIND       PRES   REMARKS
WATERTOWN      LGT SNOW  31  27  85 S10G17    29.79F VSB 1   WCI  22
FORT DRUM      NOT AVBL
MASSENA        CLOUDY    29  27  92 CALM      29.81S
SARANAC LAKE   FLURRIES  30  18  60 S25G40    29.76S WCI  16
PLATTSBURGH    CLOUDY    29  14  53 SE23      29.88F WCI  15
$$

NYZ001>004-010>016-019>021-300200-
WEST


CITY           SKY/WX    TMP DP  RH WIND       PRES   REMARKS
NIAGARA FALLS  LGT SNOW  33  31  92 SW13      29.74R FOG     WCI  24
BUFFALO        LGT SNOW  33  31  92 SW14      29.74R VSB 3/4 WCI  23
DUNKIRK        LGT SNOW  33  32  96 W18       29.77R FOG     WCI  22
JAMESTOWN      CLOUDY    32  30  93 SW3       29.72S VSB 1
WELLSVILLE     CLOUDY    25  21  85 VRB5      29.74F WCI  19
ROCHESTER      LGT SNOW  32  26  78 S10       29.76S WCI  24
PENN YAN       CLOUDY    28  20  71 S16G24    29.80F WCI  16
$$

             KEY
       WCI = WIND CHILL INDEX
       VSB = VISIBILITY
       HX  = HEAT INDEX
$$


USA.gov is the U.S. government's official web portal to all federal, state and local government web resources and services.